period_start,C,m1,H,J0,J1,J2,J3,J4,J5,JA,JB,JC,JD,JJ,JK,JN,#
2014-03-23 00:00:31,0.08,0.48,0.00,25.60,30.80,33.56,6.08,31.25,1005.39,2027.10,3270.51,3163.05,3443.59,350.40,317.97,3.82,0000 0000 0000 0000 000000
2014-03-23 00:01:31,0.14,0.48,0.00,25.60,30.80,33.56,5.81,31.21,1005.39,2027.16,3270.20,3163.01,3443.25,349.31,316.97,3.83,0000 0000 0000 0000 000000
2014-03-23 00:02:31,0.12,0.48,0.00,25.60,30.80,33.55,5.88,31.17,1005.39,2027.17,3270.07,3162.92,3443.08,350.33,318.14,3.83,0000 0000 0000 0000 000000
2014-03-23 00:03:32,0.07,0.48,0.00,25.60,30.80,33.57,6.02,31.17,1005.39,2027.19,3269.99,3162.71,3443.02,350.21,317.79,3.84,0000 0000 0000 0000 000000
2014-03-23 00:04:32,0.09,0.48,0.00,25.60,30.80,33.56,5.91,31.21,1005.39,2027.17,3269.60,3162.34,3442.92,350.10,317.69,3.84,0000 0000 0000 0000 000000
2014-03-23 00:05:32,0.12,0.49,0.00,25.61,30.80,33.54,6.00,31.13,1005.39,2027.13,3269.23,3162.14,3442.59,349.88,317.47,3.85,0000 0000 0000 0000 000000
2014-03-23 00:06:32,0.11,0.49,0.00,25.62,30.80,33.55,5.73,31.00,1005.39,2027.13,3269.06,3162.05,3442.23,350.07,317.64,3.86,0000 0000 0000 0000 000000
2014-03-23 00:07:32,0.09,0.49,0.00,25.62,30.80,33.55,5.98,31.29,1005.40,2027.15,3268.77,3162.00,3442.08,350.96,318.45,3.86,0000 0000 0000 0000 000000
2014-03-23 00:08:33,0.07,0.49,0.00,25.64,30.80,33.56,5.89,31.17,1005.40,2027.16,3268.32,3161.80,3442.02,349.96,317.21,3.87,0000 0000 0000 0000 000000
2014-03-23 00:09:33,0.12,0.49,0.00,25.65,30.80,33.55,6.00,31.33,1005.40,2027.14,3268.11,3161.38,3441.84,350.64,318.13,3.87,0000 0000 0000 0000 000000
2014-03-23 00:10:33,0.14,0.49,0.00,25.67,30.80,33.55,5.74,31.13,1005.40,2027.12,3267.97,3161.14,3441.41,348.94,316.96,3.88,0000 0000 0000 0000 000000
2014-03-23 00:11:34,0.13,0.49,0.00,25.67,30.80,33.55,5.80,31.25,1005.42,2027.15,3267.50,3161.05,3441.16,349.39,316.98,3.88,0000 0000 0000 0000 000000
2014-03-23 00:12:34,0.10,0.49,0.00,25.68,30.81,33.56,5.82,31.38,1005.40,2027.10,3267.19,3161.00,3441.06,349.74,317.37,3.89,0000 0000 0000 0000 000000
2014-03-23 00:13:34,0.03,0.49,0.00,25.69,30.81,33.55,6.12,31.38,1005.41,2027.06,3267.04,3160.79,3440.98,350.54,317.67,3.90,0000 0000 0000 0000 000000
2014-03-23 00:14:34,0.07,0.49,0.00,25.70,30.81,33.55,5.95,31.25,1005.40,2027.07,3266.75,3160.33,3440.71,349.96,317.85,3.90,0000 0000 0000 0000 000000
2014-03-23 00:15:35,0.19,0.49,0.00,25.70,30.82,33.56,6.03,31.17,1005.39,2027.09,3266.30,3160.11,3440.30,350.55,317.99,3.91,0000 0000 0000 0000 000000
2014-03-23 00:16:35,0.15,0.49,0.00,25.71,30.82,33.55,6.02,31.25,1005.40,2027.08,3266.11,3160.03,3440.11,349.82,317.32,3.91,0000 0000 0000 0000 000000
2014-03-23 00:17:35,0.07,0.49,0.00,25.72,30.82,33.54,6.03,31.33,1005.40,2027.08,3266.00,3159.96,3440.03,350.00,317.12,3.92,0000 0000 0000 0000 000000
2014-03-23 00:18:35,0.03,0.49,0.00,25.72,30.82,33.56,5.97,31.17,1005.40,2027.02,3265.80,3159.78,3439.90,350.26,317.71,3.93,0000 0000 0000 0000 000000
2014-03-23 00:19:36,0.07,0.49,0.00,25.72,30.82,33.52,5.92,31.33,1005.41,2027.04,3265.39,3159.42,3439.46,349.78,317.28,3.93,0000 0000 0000 0000 000000
2014-03-23 00:20:36,0.17,0.49,0.00,25.74,30.82,33.54,5.98,31.25,1005.41,2027.02,3265.13,3159.16,3439.17,350.09,317.54,3.94,0000 0000 0000 0000 000000
2014-03-23 00:21:36,0.12,0.49,0.00,25.74,30.82,33.56,5.79,31.00,1005.39,2027.00,3264.81,3159.04,3439.03,349.86,317.32,3.94,0000 0000 0000 0000 000000
2014-03-23 00:22:36,0.10,0.50,0.00,25.74,30.82,33.54,5.88,31.25,1005.39,2027.01,3264.33,3158.85,3438.71,349.60,317.38,3.95,0000 0000 0000 0000 000000
2014-03-23 00:23:37,0.15,0.50,0.00,25.75,30.82,33.58,5.94,31.25,1005.41,2027.00,3264.12,3158.46,3438.32,350.24,317.67,3.95,0000 0000 0000 0000 000000
2014-03-23 00:24:37,0.15,0.50,0.00,25.75,30.82,33.59,5.79,31.13,1005.40,2027.01,3263.98,3158.20,3438.13,349.33,316.84,3.96,0000 0000 0000 0000 000000
2014-03-23 00:25:37,0.10,0.50,0.00,25.77,30.82,33.51,5.79,31.13,1005.42,2027.00,3263.59,3158.08,3438.04,349.86,317.30,3.97,0000 0000 0000 0000 000000
2014-03-23 00:26:37,0.08,0.50,0.00,25.77,30.82,33.50,5.88,31.08,1005.40,2027.00,3263.21,3158.03,3437.99,350.13,317.54,3.97,0000 0000 0000 0000 000000
2014-03-23 00:27:38,0.07,0.50,0.00,25.77,30.82,33.51,6.10,31.42,1005.40,2027.00,3263.08,3157.88,3437.63,350.95,318.28,3.98,0000 0000 0000 0000 000000
2014-03-23 00:28:38,0.11,0.50,0.00,25.78,30.82,33.53,5.97,31.33,1005.39,2027.00,3262.89,3157.41,3437.25,350.22,317.61,3.98,0000 0000 0000 0000 000000
2014-03-23 00:29:38,0.16,0.50,0.00,25.79,30.82,33.51,5.92,31.42,1005.40,2027.00,3262.47,3157.16,3437.09,350.75,317.93,3.99,0000 0000 0000 0000 000000
2014-03-23 00:30:38,0.12,0.50,0.00,25.80,30.83,33.54,5.92,31.25,1005.42,2027.00,3262.16,3157.05,3437.00,349.38,316.83,4.00,0000 0000 0000 0000 000000
2014-03-23 00:31:39,0.07,0.50,0.00,25.82,30.83,33.54,6.02,31.38,1005.42,2027.00,3261.83,3156.99,3436.77,350.44,317.78,4.00,0000 0000 0000 0000 000000
2014-03-23 00:32:39,0.10,0.50,0.00,25.82,30.84,33.53,6.02,31.50,1005.42,2027.00,3261.36,3156.68,3436.34,350.55,317.57,4.01,0000 0000 0000 0000 000000
2014-03-23 00:33:39,0.17,0.50,0.00,25.83,30.84,33.46,5.96,31.33,1005.47,2027.00,3261.13,3156.30,3436.13,349.79,317.25,4.01,0000 0000 0000 0000 000000
2014-03-23 00:34:40,0.14,0.50,0.00,25.84,30.85,33.48,5.99,31.29,1005.43,2027.00,3260.83,3156.10,3436.03,350.61,317.91,4.02,0000 0000 0000 0000 000000
2014-03-23 00:35:40,0.10,0.51,0.00,25.85,30.85,33.53,5.74,31.21,1005.46,2027.00,3260.33,3156.01,3435.88,349.02,316.47,4.03,0000 0000 0000 0000 000000
2014-03-23 00:36:40,0.10,0.51,0.00,25.86,30.85,33.56,6.01,31.13,1005.44,2027.00,3260.08,3155.81,3435.49,350.40,317.71,4.03,0000 0000 0000 0000 000000
2014-03-23 00:37:41,0.15,0.51,0.00,25.87,30.85,33.52,5.93,31.25,1005.48,2027.00,3259.63,3155.36,3435.18,350.02,317.36,4.04,0000 0000 0000 0000 000000
2014-03-23 00:38:41,0.19,0.51,0.00,25.87,30.85,33.49,6.13,31.42,1005.51,2027.00,3259.23,3155.12,3435.05,351.20,318.44,4.04,0000 0000 0000 0000 000000
2014-03-23 00:39:41,0.10,0.51,0.00,25.87,30.85,33.52,5.79,31.33,1005.55,2027.00,3259.04,3155.04,3434.85,350.62,317.92,4.05,0000 0000 0000 0000 000000
2014-03-23 00:40:41,0.09,0.51,0.00,25.87,30.85,33.54,5.67,30.96,1005.52,2027.00,3258.56,3154.97,3434.37,349.09,316.79,4.05,0000 0000 0000 0000 000000
2014-03-23 00:41:42,0.14,0.51,0.00,25.87,30.85,33.53,5.88,31.25,1005.53,2027.01,3258.21,3154.66,3434.15,349.46,316.87,4.06,0000 0000 0000 0000 000000
2014-03-23 00:42:42,0.15,0.51,0.00,25.87,30.85,33.52,5.90,31.33,1005.53,2027.00,3258.05,3154.28,3434.05,350.23,317.79,4.07,0000 0000 0000 0000 000000
2014-03-23 00:43:42,0.11,0.51,0.00,25.87,30.86,33.54,5.85,31.38,1005.49,2027.00,3257.67,3154.10,3433.93,349.79,317.15,4.07,0000 0000 0000 0000 000000
2014-03-23 00:44:43,0.10,0.51,0.00,25.87,30.87,33.56,5.92,31.42,1005.54,2027.00,3257.28,3154.01,3433.51,350.45,317.77,4.08,0000 0000 0000 0000 000000
2014-03-23 00:45:43,0.11,0.51,0.00,25.87,30.87,33.54,5.93,31.46,1005.56,2027.01,3257.09,3153.84,3433.22,350.40,317.84,4.08,0000 0000 0000 0000 000000
2014-03-23 00:46:43,0.15,0.51,0.00,25.88,30.87,33.53,5.98,31.25,1005.49,2027.03,3256.70,3153.40,3433.07,350.17,317.47,4.09,0000 0000 0000 0000 000000
2014-03-23 00:47:43,0.16,0.51,0.00,25.89,30.87,33.52,5.99,31.38,1005.47,2027.02,3256.26,3153.15,3432.88,350.79,318.04,4.10,0000 0000 0000 0000 000000
2014-03-23 00:48:44,0.12,0.52,0.00,25.90,30.87,33.53,5.93,31.33,1005.51,2027.00,3256.06,3153.05,3432.41,349.34,316.82,4.10,0000 0000 0000 0000 000000
2014-03-23 00:49:44,0.09,0.52,0.00,25.90,30.87,33.55,5.87,31.38,1005.58,2027.01,3255.71,3152.91,3432.16,349.37,316.64,4.11,0000 0000 0000 0000 000000
2014-03-23 00:50:44,0.13,0.52,0.00,25.90,30.87,33.54,6.08,31.54,1005.59,2027.00,3255.27,3152.47,3432.05,350.31,317.83,4.11,0000 0000 0000 0000 000000
2014-03-23 00:51:44,0.15,0.52,0.00,25.90,30.88,33.55,5.94,31.50,1005.60,2027.01,3254.98,3152.17,3431.90,350.26,317.31,4.12,0000 0000 0000 0000 000000
2014-03-23 00:52:45,0.16,0.52,0.00,25.90,30.88,33.52,5.67,31.25,1005.71,2027.01,3254.46,3152.05,3431.43,348.92,316.40,4.12,0000 0000 0000 0000 000000
2014-03-23 00:53:45,0.13,0.52,0.00,25.92,30.89,33.51,6.04,31.42,1005.77,2027.00,3254.16,3151.84,3431.16,350.43,317.77,4.13,0000 0000 0000 0000 000000
2014-03-23 00:54:45,0.13,0.52,0.00,25.92,30.90,33.56,5.74,31.29,1005.79,2027.00,3253.84,3151.38,3430.99,349.72,317.13,4.14,0000 0000 0000 0000 000000
2014-03-23 00:55:46,0.16,0.52,0.00,25.93,30.90,33.57,6.11,31.46,1005.80,2027.00,3253.33,3151.14,3430.61,350.84,318.13,4.14,0000 0000 0000 0000 000000
2014-03-23 00:56:46,0.15,0.52,0.00,25.94,30.90,33.55,5.71,31.21,1005.85,2027.00,3253.12,3151.05,3430.24,349.33,316.77,4.15,0000 0000 0000 0000 000000
2014-03-23 00:57:46,0.09,0.52,0.00,25.95,30.90,33.50,6.04,31.38,1005.86,2027.00,3252.77,3150.84,3430.08,350.60,317.93,4.15,0000 0000 0000 0000 000000
2014-03-23 00:58:46,0.13,0.52,0.00,25.95,30.90,33.52,5.98,31.21,1005.86,2027.00,3252.31,3150.43,3429.94,350.71,318.03,4.16,0000 0000 0000 0000 000000
2014-03-23 00:59:47,0.17,0.52,0.00,25.95,30.90,33.56,6.00,31.21,1005.86,2027.00,3252.09,3150.16,3429.49,350.54,317.86,4.17,0000 0000 0000 0000 000000
2014-03-23 01:00:47,0.14,0.53,0.00,25.96,30.90,33.54,6.08,31.46,1005.87,2027.00,3251.68,3150.05,3429.19,350.82,318.12,4.17,0000 0000 0000 0000 000000
2014-03-23 01:01:47,0.13,0.53,0.00,25.97,30.90,33.53,5.94,31.29,1005.87,2027.00,3251.25,3149.83,3429.05,350.07,317.43,4.18,0000 0000 0000 0000 000000
2014-03-23 01:02:47,0.13,0.53,0.00,25.97,30.92,33.53,5.99,31.17,1005.87,2027.00,3250.95,3149.39,3428.67,350.09,317.44,4.18,0000 0000 0000 0000 000000
2014-03-23 01:03:48,0.19,0.53,0.00,25.98,30.92,33.52,5.94,31.04,1005.87,2027.00,3250.42,3149.14,3428.25,350.19,317.52,4.19,0000 0000 0000 0000 000000
2014-03-23 01:04:48,0.16,0.53,0.00,25.99,30.92,33.56,5.67,31.25,1005.87,2027.00,3250.15,3149.01,3428.09,348.36,315.85,4.20,0000 0000 0000 0000 000000
2014-03-23 01:05:48,0.08,0.53,0.00,26.00,30.92,33.56,5.97,31.17,1005.87,2027.00,3249.89,3148.73,3427.99,350.09,317.87,4.20,0000 0000 0000 0000 000000
2014-03-23 01:06:48,0.13,0.53,0.00,26.00,30.92,33.53,5.81,31.17,1005.87,2027.00,3249.39,3148.33,3427.61,350.34,317.32,4.21,0000 0000 0000 0000 000000
2014-03-23 01:07:49,0.19,0.53,0.00,26.00,30.92,33.53,5.82,31.17,1005.87,2027.00,3249.10,3148.12,3427.22,349.62,316.43,4.21,0000 0000 0000 0000 000000
2014-03-23 01:08:49,0.14,0.53,0.00,25.99,30.92,33.56,5.90,31.29,1005.87,2026.99,3248.59,3148.01,3427.06,350.30,317.41,4.22,0000 0000 0000 0000 000000
2014-03-23 01:09:49,0.11,0.53,0.00,25.99,30.93,33.57,5.86,31.13,1005.87,2026.99,3248.22,3147.64,3426.66,350.80,318.06,4.22,0000 0000 0000 0000 000000
2014-03-23 01:10:50,0.18,0.53,0.00,25.99,30.94,33.58,5.92,31.38,1005.87,2026.99,3248.02,3147.25,3426.25,350.04,317.37,4.23,0000 0000 0000 0000 000000
2014-03-23 01:11:50,0.15,0.54,0.00,25.99,30.95,33.59,5.98,31.25,1005.88,2026.99,3247.63,3147.09,3426.08,350.44,317.74,4.24,0000 0000 0000 0000 000000
2014-03-23 01:12:50,0.10,0.54,0.00,26.00,30.95,33.63,5.94,31.25,1005.88,2026.99,3247.24,3146.99,3425.96,349.96,317.30,4.24,0000 0000 0000 0000 000000
2014-03-23 01:13:51,0.08,0.54,0.00,26.00,30.95,33.63,5.85,31.17,1005.87,2026.99,3247.01,3146.70,3425.62,349.72,317.08,4.25,0000 0000 0000 0000 000000
2014-03-23 01:14:51,0.18,0.54,0.00,26.00,30.95,33.60,5.88,31.25,1005.87,2026.98,3246.48,3146.29,3425.26,349.74,317.10,4.25,0000 0000 0000 0000 000000
2014-03-23 01:15:51,0.17,0.54,0.00,26.00,30.95,33.56,5.96,31.42,1005.87,2026.98,3246.17,3146.10,3425.08,350.00,317.33,4.26,0000 0000 0000 0000 000000
2014-03-23 01:16:51,0.09,0.54,0.00,26.00,30.95,33.54,5.80,31.29,1005.89,2026.98,3245.81,3146.00,3424.92,349.37,316.83,4.27,0000 0000 0000 0000 000000
2014-03-23 01:17:51,0.11,0.54,0.00,26.00,30.95,33.58,5.93,31.42,1005.87,2026.97,3245.32,3145.66,3424.50,350.87,318.11,4.27,0000 0000 0000 0000 000000
2014-03-23 01:18:52,0.19,0.54,0.00,26.02,30.97,33.61,6.07,31.38,1005.87,2026.98,3245.06,3145.26,3424.19,350.30,317.57,4.28,0000 0000 0000 0000 000000
2014-03-23 01:19:52,0.16,0.54,0.00,26.02,30.97,33.64,5.69,31.08,1005.88,2026.97,3244.58,3145.09,3424.03,349.29,316.66,4.28,0000 0000 0000 0000 000000
2014-03-23 01:20:52,0.11,0.54,0.00,26.04,30.97,33.66,6.07,31.29,1005.87,2026.96,3244.21,3144.95,3423.73,350.38,317.62,4.29,0000 0000 0000 0000 000000
2014-03-23 01:21:52,0.13,0.54,0.00,26.05,30.97,33.60,5.77,31.04,1005.88,2026.96,3243.95,3144.57,3423.30,349.30,316.65,4.29,0000 0000 0000 0000 000000
2014-03-23 01:22:52,0.17,0.54,0.00,26.05,30.97,33.61,5.98,31.00,1005.89,2026.97,3243.43,3144.24,3423.09,350.28,317.29,4.30,0000 0000 0000 0000 000000
2014-03-23 01:23:53,0.16,0.55,0.00,26.06,30.97,33.61,5.71,30.92,1005.87,2026.98,3243.15,3144.08,3422.91,348.80,316.07,4.31,0000 0000 0000 0000 000000
2014-03-23 01:24:53,0.11,0.55,0.00,26.07,30.98,33.61,5.71,30.92,1005.88,2026.98,3242.80,3143.90,3422.45,349.09,316.22,4.31,0000 0000 0000 0000 000000
2014-03-23 01:25:53,0.18,0.55,0.00,26.07,31.00,33.60,5.83,30.92,1005.89,2026.98,3242.30,3143.41,3422.15,349.26,316.59,4.32,0000 0000 0000 0000 000000
2014-03-23 01:26:53,0.18,0.55,0.00,26.08,31.00,33.60,6.05,31.08,1005.88,2026.95,3242.06,3143.15,3422.01,350.61,317.65,4.32,0000 0000 0000 0000 000000
2014-03-23 01:27:54,0.07,0.55,0.00,26.09,31.00,33.60,5.70,31.04,1005.89,2026.91,3241.55,3142.99,3421.58,349.19,317.00,4.33,0000 0000 0000 0000 000000
2014-03-23 01:28:54,0.16,0.55,0.00,26.09,31.00,33.64,5.69,31.08,1005.89,2026.86,3241.19,3142.58,3421.22,349.37,316.66,4.34,0000 0000 0000 0000 000000
2014-03-23 01:29:54,0.11,0.55,0.00,26.10,31.00,33.62,5.97,31.00,1005.89,2026.75,3240.74,3142.22,3421.00,350.35,317.55,4.34,0000 0000 0000 0000 000000
2014-03-23 01:30:54,0.11,0.55,0.00,26.10,31.02,33.57,5.94,31.08,1005.88,2026.69,3240.29,3142.08,3420.50,349.56,317.01,4.35,0000 0000 0000 0000 000000
2014-03-23 01:31:54,0.11,0.55,0.00,26.10,31.02,33.59,5.91,31.08,1005.88,2026.69,3240.01,3141.85,3420.20,350.46,317.21,4.35,0000 0000 0000 0000 000000
2014-03-23 01:32:55,0.14,0.55,0.00,26.10,31.02,33.59,5.87,31.17,1005.90,2026.60,3239.51,3141.40,3420.07,350.02,317.25,4.36,0000 0000 0000 0000 000000
2014-03-23 01:33:55,0.06,0.55,0.00,26.11,31.02,33.58,5.84,31.25,1005.90,2026.63,3239.18,3141.16,3419.96,350.25,317.45,4.37,0000 0000 0000 0000 000000
2014-03-23 01:34:55,0.17,0.55,0.00,26.12,31.02,33.58,5.82,30.92,1005.90,2026.60,3238.89,3141.04,3419.46,349.92,317.14,4.37,0000 0000 0000 0000 000000
2014-03-23 01:35:55,0.13,0.55,0.00,26.13,31.03,33.61,6.04,31.25,1005.94,2026.69,3238.41,3140.95,3419.16,350.72,317.87,4.38,0000 0000 0000 0000 000000
2014-03-23 01:36:55,0.16,0.56,0.00,26.14,31.05,33.66,6.10,31.21,1005.95,2026.62,3238.13,3140.49,3419.03,349.94,317.15,4.38,0000 0000 0000 0000 000000
2014-03-23 01:37:56,0.11,0.56,0.00,26.15,31.05,33.68,5.68,30.92,1006.05,2026.48,3237.66,3140.18,3418.60,349.32,316.61,4.39,0000 0000 0000 0000 000000
2014-03-23 01:38:56,0.08,0.56,0.00,26.15,31.05,33.64,5.97,31.08,1006.11,2026.41,3237.24,3140.04,3418.22,350.71,317.89,4.39,0000 0000 0000 0000 000000
2014-03-23 01:39:56,0.07,0.56,0.00,26.16,31.05,33.64,5.78,30.92,1006.18,2026.39,3237.03,3139.84,3418.07,349.58,316.88,4.40,0000 0000 0000 0000 000000
2014-03-23 01:40:56,0.10,0.56,0.00,26.17,31.05,33.66,6.07,31.25,1006.17,2026.35,3236.50,3139.36,3417.79,350.14,317.61,4.41,0000 0000 0000 0000 000000
2014-03-23 01:41:57,0.17,0.56,0.00,26.17,31.05,33.70,5.98,31.29,1006.27,2026.26,3236.17,3139.13,3417.34,350.60,317.81,4.41,0000 0000 0000 0000 000000
2014-03-23 01:42:57,0.06,0.56,0.00,26.17,31.06,33.66,5.72,31.00,1006.31,2026.21,3235.81,3138.96,3417.12,348.91,316.29,4.42,0000 0000 0000 0000 000000
2014-03-23 01:43:57,0.11,0.56,0.00,26.18,31.07,33.61,5.72,30.96,1006.32,2026.15,3235.30,3138.56,3416.95,349.77,317.07,4.42,0000 0000 0000 0000 000000
2014-03-23 01:44:57,0.14,0.56,0.00,26.20,31.07,33.60,5.97,31.04,1006.32,2026.10,3235.06,3138.22,3416.47,350.59,317.80,4.43,0000 0000 0000 0000 000000
2014-03-23 01:45:57,0.12,0.56,0.00,26.20,31.07,33.60,5.98,31.04,1006.35,2026.07,3234.59,3138.07,3416.17,350.28,317.52,4.44,0000 0000 0000 0000 000000
2014-03-23 01:46:58,0.13,0.56,0.00,26.21,31.07,33.60,5.75,31.21,1006.34,2026.06,3234.22,3137.91,3416.04,349.15,316.49,4.44,0000 0000 0000 0000 000000
2014-03-23 01:47:58,0.09,0.56,0.00,26.22,31.08,33.62,5.70,31.04,1006.32,2026.04,3233.90,3137.45,3415.68,349.07,316.40,4.45,0000 0000 0000 0000 000000
2014-03-23 01:48:58,0.18,0.56,0.00,26.24,31.09,33.66,5.94,31.04,1006.32,2026.02,3233.37,3137.16,3415.26,350.29,317.48,4.45,0000 0000 0000 0000 000000
2014-03-23 01:49:58,0.16,0.56,0.00,26.25,31.10,33.68,6.02,31.04,1006.28,2026.01,3233.06,3136.97,3415.03,350.24,317.41,4.46,0000 0000 0000 0000 000000
2014-03-23 01:50:59,0.11,0.57,0.00,26.26,31.10,33.68,6.11,31.38,1006.27,2026.01,3232.53,3136.52,3414.59,350.71,317.82,4.46,0000 0000 0000 0000 000000
2014-03-23 01:51:59,0.24,0.57,0.00,26.27,31.10,33.68,6.07,31.13,1006.27,2026.00,3232.19,3136.19,3414.22,350.41,317.54,4.47,0000 0000 0000 0000 000000
2014-03-23 01:52:59,0.14,0.57,0.00,26.28,31.10,33.64,6.08,31.25,1006.31,2026.00,3231.88,3136.04,3414.07,351.00,318.31,4.48,0000 0000 0000 0000 000000
2014-03-23 01:53:59,0.09,0.57,0.00,26.29,31.11,33.63,5.78,30.96,1006.34,2026.00,3231.38,3135.80,3413.81,350.27,317.32,4.48,0000 0000 0000 0000 000000
2014-03-23 01:55:00,0.17,0.57,0.00,26.30,31.12,33.63,5.62,30.83,1006.33,2026.00,3231.11,3135.36,3413.33,348.39,315.70,4.49,0000 0000 0000 0000 000000
2014-03-23 01:56:00,0.19,0.57,0.00,26.30,31.12,33.65,5.88,31.08,1006.34,2026.00,3230.64,3135.13,3413.12,349.75,316.93,4.49,0000 0000 0000 0000 000000
2014-03-23 01:57:00,0.14,0.57,0.00,26.30,31.12,33.64,5.72,30.96,1006.36,2026.01,3230.23,3135.05,3413.03,348.91,316.17,4.50,0000 0000 0000 0000 000000
2014-03-23 01:58:01,0.08,0.57,0.00,26.31,31.12,33.65,6.06,31.38,1006.36,2026.01,3230.01,3134.99,3412.67,350.04,317.19,4.51,0000 0000 0000 0000 000000
2014-03-23 01:59:01,0.09,0.57,0.00,26.32,31.13,33.66,6.03,31.25,1006.36,2026.00,3229.54,3134.78,3412.25,350.36,317.78,4.51,0000 0000 0000 0000 000000
2014-03-23 02:00:01,0.17,0.57,0.00,26.32,31.15,33.67,6.04,31.38,1006.36,2026.00,3229.19,3134.35,3412.09,350.41,317.23,4.52,0000 0000 0000 0000 000000
2014-03-23 02:01:01,0.15,0.57,0.00,26.32,31.15,33.64,5.99,31.42,1006.35,2026.00,3228.83,3134.13,3411.90,350.67,317.74,4.52,0000 0000 0000 0000 000000
2014-03-23 02:02:02,0.12,0.57,0.00,26.34,31.15,33.63,5.70,31.13,1006.36,2026.00,3228.33,3133.97,3411.46,348.86,316.09,4.53,0000 0000 0000 0000 000000
2014-03-23 02:03:02,0.16,0.58,0.00,26.35,31.15,33.62,5.64,31.08,1006.36,2026.00,3228.04,3133.50,3411.16,348.95,316.20,4.54,0000 0000 0000 0000 000000
2014-03-23 02:04:02,0.19,0.58,0.00,26.35,31.15,33.64,5.82,31.21,1006.35,2026.00,3227.50,3133.19,3410.89,350.14,317.32,4.54,0000 0000 0000 0000 000000
2014-03-23 02:05:02,0.17,0.58,0.00,26.37,31.17,33.63,5.85,30.88,1006.33,2026.00,3227.18,3133.04,3410.42,349.48,316.83,4.55,0000 0000 0000 0000 000000
2014-03-23 02:06:03,0.13,0.58,0.00,26.38,31.17,33.63,5.78,30.92,1006.30,2026.00,3226.81,3132.76,3410.16,349.76,316.61,4.55,0000 0000 0000 0000 000000
2014-03-23 02:07:03,0.17,0.58,0.00,26.39,31.17,33.63,5.81,30.83,1006.34,2026.00,3226.33,3132.31,3409.99,349.60,316.25,4.56,0000 0000 0000 0000 000000
2014-03-23 02:08:03,0.17,0.58,0.00,26.40,31.17,33.66,6.01,31.42,1006.34,2026.00,3226.08,3132.11,3409.58,351.38,318.30,4.56,0000 0000 0000 0000 000000
2014-03-23 02:09:03,0.13,0.58,0.00,26.40,31.18,33.70,6.06,31.17,1006.34,2026.00,3225.60,3131.96,3409.22,350.58,317.57,4.57,0000 0000 0000 0000 000000
2014-03-23 02:10:03,0.15,0.58,0.00,26.42,31.20,33.74,5.78,30.92,1006.33,2025.99,3225.22,3131.58,3409.07,349.62,316.86,4.58,0000 0000 0000 0000 000000
2014-03-23 02:11:03,0.15,0.58,0.00,26.42,31.20,33.74,5.65,31.00,1006.32,2025.97,3224.98,3131.22,3408.78,349.44,316.33,4.58,0000 0000 0000 0000 000000
2014-03-23 02:12:04,0.14,0.58,0.00,26.42,31.20,33.74,6.08,31.13,1006.35,2025.96,3224.46,3131.06,3408.31,350.41,317.49,4.59,0000 0000 0000 0000 000000
2014-03-23 02:13:04,0.16,0.59,0.00,26.42,31.20,33.74,6.12,31.17,1006.32,2025.97,3224.16,3130.90,3408.11,350.24,317.51,4.59,0000 0000 0000 0000 000000
2014-03-23 02:14:04,0.10,0.59,0.00,26.43,31.21,33.74,5.90,31.13,1006.33,2025.97,3223.91,3130.50,3407.94,349.63,316.45,4.60,0000 0000 0000 0000 000000
2014-03-23 02:15:04,0.14,0.59,0.00,26.44,31.22,33.70,5.78,30.96,1006.35,2025.95,3223.38,3130.19,3407.48,349.22,316.30,4.61,0000 0000 0000 0000 000000
2014-03-23 02:16:05,0.19,0.59,0.00,26.45,31.22,33.70,5.93,31.08,1006.36,2025.93,3223.12,3130.03,3407.18,350.19,317.18,4.61,0000 0000 0000 0000 000000
2014-03-23 02:17:05,0.07,0.59,0.00,26.46,31.22,33.69,5.81,30.96,1006.36,2025.91,3222.66,3129.69,3407.00,349.65,316.68,4.62,0000 0000 0000 0000 000000
2014-03-23 02:18:05,0.18,0.59,0.00,26.47,31.23,33.69,5.68,31.13,1006.36,2025.92,3222.23,3129.27,3406.61,350.07,317.05,4.62,0000 0000 0000 0000 000000
2014-03-23 02:19:06,0.18,0.59,0.00,26.47,31.25,33.70,5.78,31.00,1006.36,2025.89,3221.95,3129.10,3406.22,349.65,316.67,4.63,0000 0000 0000 0000 000000
2014-03-23 02:20:06,0.12,0.59,0.00,26.47,31.25,33.70,5.71,30.75,1006.37,2025.85,3221.43,3128.98,3406.07,349.96,316.95,4.63,0000 0000 0000 0000 000000
2014-03-23 02:21:06,0.06,0.59,0.00,26.47,31.25,33.68,6.02,31.17,1006.36,2025.81,3221.15,3128.65,3405.82,350.07,317.04,4.64,0000 0000 0000 0000 000000
2014-03-23 02:22:06,0.15,0.59,0.00,26.49,31.25,33.70,5.77,30.92,1006.36,2025.70,3220.80,3128.26,3405.34,350.17,317.12,4.65,0000 0000 0000 0000 000000
2014-03-23 02:23:06,0.10,0.59,0.00,26.50,31.26,33.71,5.96,30.92,1006.36,2025.61,3220.33,3128.09,3405.12,349.93,316.89,4.65,0000 0000 0000 0000 000000
2014-03-23 02:24:07,0.05,0.59,0.00,26.50,31.27,33.71,5.98,31.13,1006.36,2025.49,3220.06,3127.95,3404.99,350.66,317.55,4.66,0000 0000 0000 0000 000000
2014-03-23 02:25:07,-0.02,0.59,0.00,26.52,31.27,33.72,5.75,30.96,1006.36,2025.43,3219.63,3127.56,3404.55,349.25,316.20,4.66,0000 0000 0000 0000 000000
2014-03-23 02:26:07,0.19,0.59,0.00,26.53,31.27,33.72,5.96,31.04,1006.36,2025.38,3219.23,3127.22,3404.21,350.84,317.69,4.67,0000 0000 0000 0000 000000
2014-03-23 02:27:07,0.12,0.60,0.00,26.55,31.28,33.73,5.78,30.92,1006.36,2025.35,3219.00,3127.07,3404.07,349.92,316.66,4.68,0000 0000 0000 0000 000000
2014-03-23 02:28:08,0.05,0.60,0.00,26.56,31.30,33.74,5.83,30.96,1006.36,2025.24,3218.48,3126.86,3403.80,349.46,316.41,4.68,0000 0000 0000 0000 000000
2014-03-23 02:29:08,0.05,0.60,0.00,26.57,31.30,33.73,5.87,31.00,1006.36,2025.16,3218.16,3126.41,3403.36,349.77,316.68,4.69,0000 0000 0000 0000 000000
2014-03-23 02:30:08,0.14,0.60,0.00,26.57,31.30,33.75,5.89,31.04,1006.36,2025.13,3217.75,3126.15,3403.13,350.50,317.36,4.69,0000 0000 0000 0000 000000
2014-03-23 02:31:09,0.12,0.60,0.00,26.59,31.30,33.75,5.84,31.00,1006.36,2025.08,3217.28,3125.97,3402.88,349.66,316.76,4.70,0000 0000 0000 0000 000000
2014-03-23 02:32:09,0.07,0.60,0.00,26.60,31.31,33.75,5.95,31.17,1006.36,2025.03,3217.03,3125.50,3402.40,351.07,317.39,4.70,0000 0000 0000 0000 000000
2014-03-23 02:33:09,0.18,0.60,0.00,26.60,31.32,33.74,5.78,30.88,1006.36,2025.02,3216.55,3125.20,3402.14,349.38,316.59,4.71,0000 0000 0000 0000 000000
2014-03-23 02:34:09,0.17,0.60,0.00,26.60,31.32,33.75,5.82,30.92,1006.36,2025.02,3216.20,3125.07,3402.03,350.52,317.32,4.72,0000 0000 0000 0000 000000
2014-03-23 02:35:10,0.06,0.60,0.00,26.61,31.32,33.75,5.71,30.96,1006.36,2025.01,3215.98,3124.99,3401.74,349.75,316.62,4.72,0000 0000 0000 0000 000000
2014-03-23 02:36:10,0.10,0.60,0.00,26.62,31.33,33.76,5.95,31.00,1006.38,2025.01,3215.50,3124.68,3401.31,349.81,316.66,4.73,0000 0000 0000 0000 000000
2014-03-23 02:37:10,0.21,0.60,0.00,26.62,31.35,33.77,6.10,31.17,1006.37,2025.00,3215.19,3124.28,3401.11,350.20,317.01,4.73,0000 0000 0000 0000 000000